• Em Portugal
  • Lista de países
  • Para 7 dias
  • Temperatura da água
  • Mapas de satélite
  • Mapa do tempo
  • Widgets de tempo
  • user-avatar
    Iniciar Sessão

    Previsão horária em Marmaris

    Hoje, 19 Outubro, Quinta-feira

    Tempo Temperatura Precipitação Vento Pressão Humidade
    00:00 +21°C° 0 mm 1 m/s 759 mmHg 53%
    01:00 +21°C° 0 mm 1 m/s 759 mmHg 53%
    02:00 +21°C° 0 mm 1 m/s 759 mmHg 53%
    03:00 +21°C° 0 mm 1 m/s 759 mmHg 53%
    04:00 +20°C° 0 mm 1 m/s 759 mmHg 52%
    05:00 +20°C° 0 mm 1 m/s 758 mmHg 52%
    06:00 +21°C° 0 mm 1 m/s 759 mmHg 48%
    07:00 +23°C° 0 mm 1 m/s 759 mmHg 44%
    08:00 +24°C° 0 mm 1 m/s 759 mmHg 41%
    09:00 +26°C° 0 mm 1 m/s 759 mmHg 37%
    10:00 +28°C° 0 mm 1 m/s 759 mmHg 32%
    11:00 +30°C° 0 mm 2 m/s 759 mmHg 28%
    12:00 +30°C° 0 mm 2 m/s 759 mmHg 28%
    13:00 +30°C° 0 mm 2 m/s 759 mmHg 27%
    14:00 +30°C° 0 mm 3 m/s 759 mmHg 26%
    15:00 +29°C° 0 mm 2 m/s 758 mmHg 32%
    16:00 +27°C° 0 mm 2 m/s 758 mmHg 37%
    17:00 +26°C° 0 mm 2 m/s 758 mmHg 42%
    18:00 +24°C° 0 mm 2 m/s 759 mmHg 46%
    19:00 +23°C° 0 mm 2 m/s 759 mmHg 51%
    20:00 +20°C° 0 mm 2 m/s 759 mmHg 55%
    21:00 +20°C° 0 mm 2 m/s 759 mmHg 55%
    22:00 +20°C° 0 mm 2 m/s 759 mmHg 55%
    23:00 +20°C° 0 mm 2 m/s 759 mmHg 55%

    Amanhã, 20 Outubro, Sexta-feira

    Tempo Temperatura Precipitação Vento Pressão Humidade
    00:00 +20°C° 0 mm 2 m/s 759 mmHg 55%
    01:00 +19°C° 0 mm 2 m/s 759 mmHg 54%
    02:00 +19°C° 0 mm 2 m/s 759 mmHg 54%
    03:00 +19°C° 0 mm 2 m/s 759 mmHg 53%
    04:00 +19°C° 0 mm 2 m/s 759 mmHg 52%
    05:00 +19°C° 0 mm 2 m/s 758 mmHg 51%
    06:00 +20°C° 0 mm 2 m/s 759 mmHg 47%
    07:00 +21°C° 0 mm 2 m/s 759 mmHg 43%
    08:00 +24°C° 0 mm 2 m/s 759 mmHg 39%
    09:00 +26°C° 0 mm 2 m/s 759 mmHg 35%
    10:00 +28°C° 0 mm 2 m/s 759 mmHg 30%
    11:00 +30°C° 0 mm 2 m/s 759 mmHg 26%
    12:00 +30°C° 0 mm 3 m/s 759 mmHg 26%
    13:00 +30°C° 0 mm 3 m/s 758 mmHg 26%
    14:00 +30°C° 0 mm 3 m/s 758 mmHg 26%
    15:00 +29°C° 0 mm 3 m/s 758 mmHg 32%
    16:00 +27°C° 0 mm 3 m/s 758 mmHg 38%
    17:00 +26°C° 0 mm 3 m/s 758 mmHg 43%
    18:00 +25°C° 0 mm 3 m/s 758 mmHg 47%
    19:00 +23°C° 0 mm 2 m/s 758 mmHg 51%
    20:00 +21°C° 0 mm 2 m/s 758 mmHg 54%
    21:00 +21°C° 0 mm 2 m/s 758 mmHg 53%
    22:00 +21°C° 0 mm 2 m/s 758 mmHg 52%
    23:00 +20°C° 0 mm 2 m/s 758 mmHg 51%

    Depois de amanhã, 21 Outubro, Sábado

    Tempo Temperatura Precipitação Vento Pressão Humidade
    00:00 +20°C° 0 mm 2 m/s 758 mmHg 50%
    01:00 +20°C° 0 mm 3 m/s 758 mmHg 49%
    02:00 +19°C° 0 mm 3 m/s 758 mmHg 48%
    03:00 +19°C° 0 mm 3 m/s 758 mmHg 46%
    04:00 +19°C° 0 mm 3 m/s 758 mmHg 45%
    05:00 +19°C° 0 mm 3 m/s 758 mmHg 44%
    06:00 +20°C° 0 mm 3 m/s 758 mmHg 41%
    07:00 +21°C° 0 mm 2 m/s 758 mmHg 38%
    08:00 +23°C° 0 mm 2 m/s 758 mmHg 35%
    09:00 +26°C° 0 mm 2 m/s 758 mmHg 31%
    10:00 +28°C° 0 mm 2 m/s 758 mmHg 27%
    11:00 +30°C° 0 mm 2 m/s 758 mmHg 23%
    12:00 +30°C° 0 mm 3 m/s 757 mmHg 23%
    13:00 +30°C° 0 mm 3 m/s 757 mmHg 23%
    14:00 +31°C° 0 mm 3 m/s 757 mmHg 24%
    15:00 +29°C° 0 mm 3 m/s 756 mmHg 29%
    16:00 +27°C° 0 mm 3 m/s 756 mmHg 34%
    17:00 +26°C° 0 mm 3 m/s 756 mmHg 39%
    18:00 +24°C° 0 mm 3 m/s 756 mmHg 41%
    19:00 +23°C° 0 mm 2 m/s 757 mmHg 43%
    20:00 +21°C° 0 mm 2 m/s 757 mmHg 45%
    21:00 +21°C° 0 mm 2 m/s 757 mmHg 43%
    22:00 +20°C° 0 mm 2 m/s 757 mmHg 41%
    23:00 +20°C° 0 mm 2 m/s 757 mmHg 39%

    22 Outubro, Domingo

    Tempo Temperatura Precipitação Vento Pressão Humidade
    00:00 +20°C° 0 mm 2 m/s 756 mmHg 38%
    01:00 +20°C° 0 mm 2 m/s 756 mmHg 37%
    02:00 +20°C° 0 mm 2 m/s 756 mmHg 36%
    03:00 +20°C° 0 mm 2 m/s 756 mmHg 37%
    04:00 +19°C° 0 mm 2 m/s 756 mmHg 37%
    05:00 +19°C° 0 mm 2 m/s 756 mmHg 37%
    06:00 +20°C° 0 mm 2 m/s 756 mmHg 36%
    07:00 +21°C° 0 mm 2 m/s 756 mmHg 35%
    08:00 +23°C° 0 mm 2 m/s 756 mmHg 34%
    09:00 +25°C° 0 mm 2 m/s 756 mmHg 31%
    10:00 +27°C° 0 mm 2 m/s 756 mmHg 27%
    11:00 +29°C° 0 mm 2 m/s 756 mmHg 24%
    12:00 +29°C° 0 mm 2 m/s 755 mmHg 24%
    13:00 +29°C° 0 mm 2 m/s 755 mmHg 23%
    14:00 +30°C° 0 mm 2 m/s 755 mmHg 23%
    15:00 +28°C° 0 mm 2 m/s 755 mmHg 28%
    16:00 +26°C° 0 mm 2 m/s 755 mmHg 32%
    17:00 +25°C° 0 mm 2 m/s 754 mmHg 37%
    18:00 +23°C° 0 mm 2 m/s 755 mmHg 41%
    19:00 +21°C° 0 mm 2 m/s 755 mmHg 44%
    20:00 +21°C° 0 mm 1 m/s 755 mmHg 48%
    21:00 +20°C° 0 mm 1 m/s 755 mmHg 48%
    22:00 +20°C° 0 mm 1 m/s 755 mmHg 48%
    23:00 +20°C° 0 mm 1 m/s 755 mmHg 48%

    23 Outubro, Segunda-feira

    Tempo Temperatura Precipitação Vento Pressão Humidade
    00:00 +20°C° 0 mm 1 m/s 755 mmHg 47%
    01:00 +19°C° 0 mm 1 m/s 755 mmHg 47%
    02:00 +19°C° 0 mm 1 m/s 755 mmHg 47%
    03:00 +19°C° 0 mm 1 m/s 755 mmHg 47%
    04:00 +19°C° 0 mm 1 m/s 755 mmHg 47%
    05:00 +19°C° 0 mm 1 m/s 754 mmHg 47%
    06:00 +20°C° 0 mm 1 m/s 755 mmHg 44%
    07:00 +21°C° 0 mm 1 m/s 755 mmHg 42%
    08:00 +22°C° 0 mm 1 m/s 755 mmHg 39%
    09:00 +24°C° 0 mm 1 m/s 755 mmHg 35%
    10:00 +26°C° 0 mm 1 m/s 754 mmHg 32%
    11:00 +27°C° 0 mm 2 m/s 754 mmHg 28%
    12:00 +27°C° 0 mm 2 m/s 754 mmHg 29%
    13:00 +27°C° 0 mm 2 m/s 754 mmHg 29%
    14:00 +27°C° 0 mm 2 m/s 753 mmHg 29%
    15:00 +26°C° 0 mm 2 m/s 753 mmHg 35%
    16:00 +24°C° 0 mm 2 m/s 753 mmHg 41%
    17:00 +23°C° 0 mm 2 m/s 753 mmHg 47%
    18:00 +21°C° 0 mm 2 m/s 753 mmHg 54%
    19:00 +20°C° 0 mm 1 m/s 754 mmHg 61%
    20:00 +19°C° 0 mm 1 m/s 754 mmHg 68%
    21:00 +17°C° 0 mm 2 m/s 754 mmHg 70%
    22:00 +17°C° 0 mm 2 m/s 754 mmHg 72%
    23:00 +17°C° 0 mm 3 m/s 754 mmHg 73%

    24 Outubro, Terça-feira

    Tempo Temperatura Precipitação Vento Pressão Humidade
    00:00 +17°C° 0 mm 3 m/s 753 mmHg 75%
    01:00 +15°C° 0 mm 4 m/s 753 mmHg 78%
    02:00 +15°C° 0 mm 4 m/s 753 mmHg 80%
    03:00 +15°C° 0 mm 5 m/s 752 mmHg 82%
    04:00 +15°C° 0 mm 5 m/s 752 mmHg 85%
    05:00 +15°C° 0 mm 6 m/s 752 mmHg 88%
    06:00 +16°C° 0,9 mm 7 m/s 752 mmHg 81%
    07:00 +17°C° 0,9 mm 7 m/s 752 mmHg 75%
    08:00 +18°C° 0,9 mm 8 m/s 751 mmHg 69%
    09:00 +18°C° 4,2 mm 8 m/s 751 mmHg 72%
    10:00 +17°C° 4,2 mm 8 m/s 751 mmHg 75%
    11:00 +17°C° 4,2 mm 8 m/s 751 mmHg 79%
    12:00 +17°C° 4,2 mm 7 m/s 751 mmHg 80%
    13:00 +16°C° 4,2 mm 6 m/s 750 mmHg 82%
    14:00 +16°C° 4,2 mm 5 m/s 750 mmHg 83%
    15:00 +16°C° 2,2 mm 5 m/s 750 mmHg 83%
    16:00 +15°C° 2,2 mm 4 m/s 750 mmHg 82%
    17:00 +15°C° 2,2 mm 4 m/s 750 mmHg 81%
    18:00 +15°C° 1,7 mm 4 m/s 750 mmHg 83%
    19:00 +15°C° 1,7 mm 4 m/s 750 mmHg 85%
    20:00 +15°C° 1,7 mm 4 m/s 751 mmHg 86%
    21:00 +15°C° 1,6 mm 4 m/s 751 mmHg 88%
    22:00 +15°C° 1,6 mm 4 m/s 751 mmHg 90%
    23:00 +17°C° 1,6 mm 4 m/s 751 mmHg 92%
    Mostrar mais